Погода в Усть-Лыже

Россия / Республика Коми     65°40′54″N   56°40′37″E
темп.,
°C
ветер,
м/с
пор.,
м/с
влажн.,
%
обл.,
%
осадки,
мм/ч
давл.,
гПа
погр.,
м
27 октября, ср
ср2700:00−11зюз269645 0.0 1012106
03:00−14зюз229866 0.0 101324
06:00−15юз119864 0.0 101213
09:00−9ююв1490100 0.0 1011106
12:00−6ююв3884100 0.0 1010366
15:00−6юв3986100 0.0 1007342
18:00−6вюв41289100 0.1 1004704
21:00−6вюв41295100 2.5 1000778
28 октября, чт
чт2800:00−5в4996100 3.1 996537
03:00−5в4896100 6.2 993375
06:00−5св4896100 3.4 992360
09:00−6ссв51095100 5.3 992428
12:00−7с61394100 1.4 995709
15:00−7с61489100 2.1 998910
18:00−8ссз6158271 0.0 1002688
21:00−8ссз5149243 0.1 1005502
29 октября, пт
пт2900:00−7сз6158275 0.0 1007621
03:00−6ссз6148638 0.0 1010878
06:00−8сз514865 0.0 1012472
09:00−8сз413845 0.0 1014419
12:00−7зсз411835 0.0 1016395
15:00−11з26925 0.0 101797
18:00−15зюз229715 0.0 101731
21:00−18ююз22100100 0.0 101514
30 октября, сб
сб3000:00−13ююв2895100 0.0 1013125
03:00−10ююв41191100 0.0 1010296
06:00−8юв41195100 0.4 1008415
09:00−7юв3895100 1.6 1007403
12:00−6в3796100 0.9 1008324
15:00−7в2495100 1.3 1010133
18:00−14св119693 0.0 101316
21:00−15св1197100 0.0 10169
31 октября, вс
вс3100:00−17в11987 0.0 10179
03:00−17ююв119877 0.0 10189
06:00−19ююв219929 0.0 101821
09:00−11ююв3997100 0.0 1016197
12:00−7ююв41095100 0.3 1013271
15:00−5ююв41396100 2.1 1009403
18:00−3ююв41197100 2.9 1006409
21:00−1ю2899100 5.4 1004355